This demonstration page uses our WeatherBlox Daily Observations layout. Learn more.

Left ArrowRight Arrow

39.95238, -75.16362

Hourly Observations for October 2, 2022

Temp ( °F °C ) Dew Point ( °F °C ) Humidity (%) Winds ( mph kmh ) Pressure ( in mb ) Visibility ( mi km ) Precip ( " mm )
12:54 am 00:54 Cloudy 61 16.1 57 13.9 87 87 NE 10 17 29.93 1014 10 16 0.00 0.00
1:54 am 01:54 Cloudy 60 15.6 57 13.9 90 90 NE 12 19 29.92 1013 10 16 0.00 0.00
2:08 am 02:08 Cloudy with Drizzle 60 15.6 57 13.9 90 90 NNE 10 17 29.93 1014 6 10 0.01 0.13
2:44 am 02:44 Cloudy 60 15.6 56 13.3 86 86 NE 14 22 29.92 1013 10 16 0.01 0.13
2:54 am 02:54 Cloudy 60 15.6 56 13.3 86 86 NE 10 17 29.91 1013 10 16 0.01 0.13
3:39 am 03:39 Cloudy with Light Rain 60 15.6 56 13.3 86 86 NE 12 19 29.91 1013 10 16 0.02 0.51
3:54 am 03:54 Cloudy 60 15.6 55 12.8 83 83 NE 12 19 29.91 1013 10 16 0.02 0.51
4:15 am 04:15 Cloudy 60 15.6 55 12.8 83 83 NE 12 19 29.91 1013 10 16 0.00 0.00
4:50 am 04:50 Cloudy with Light Rain 61 16 55 13 82 82 NE 13 20 29.92 1013 7 11 0.01 0.25
4:54 am 04:54 Cloudy with Light Rain 60 15.6 55 12.8 83 83 NE 12 19 29.91 1013 8 13 0.01 0.25
5:05 am 05:05 Cloudy 60 15.6 55 12.8 83 83 NE 9 15 29.92 1013 10 16 0.01 0.13
5:54 am 05:54 Cloudy 60 15.6 55 12.8 83 83 NE 9 15 29.93 1013 10 16 0.01 0.13
6:43 am 06:43 Cloudy with Haze 60 15.6 55 12.8 83 83 NE 15 24 29.94 1014 6 10 0.01 0.13
6:54 am 06:54 Cloudy with Light Rain 59 15 54 12.2 83 83 NE 17 28 29.94 1014 4 6 0.01 0.13
7:12 am 07:12 Cloudy with Heavy Rain 58 14.4 55 12.8 90 90 NE 14 22 29.95 1014 2 3 0.03 0.76
7:24 am 07:24 Cloudy with Light Rain 58 14.4 55 12.8 90 90 NE 14 22 29.96 1015 1 2 0.05 1.27
7:44 am 07:44 Cloudy with Light Rain 57 13.9 54 12.2 89 89 NE 15 24 29.96 1015 2 3 0.08 2.03
7:54 am 07:54 Cloudy with Rain 57 13.9 53 11.7 87 87 NE 16 26 29.97 1015 4 6 0.09 2.29
8:02 am 08:02 Cloudy with Rain 57 13.9 53 11.7 87 87 NE 12 19 29.97 1015 2 3 0.02 0.51
8:38 am 08:38 Cloudy with Rain 56 13.3 53 11.7 90 90 NE 13 20 29.99 1016 3 5 0.10 2.54
8:54 am 08:54 Cloudy with Rain 56 13.3 53 11.7 90 90 NE 12 19 29.99 1016 4 6 0.12 3.05
9:07 am 09:07 Cloudy with Light Rain 56 13.3 53 11.7 90 90 NE 13 20 30.00 1016 3 4 0.03 0.76
9:35 am 09:35 Cloudy with Light Rain 56 13.3 53 11.7 90 90 NE 16 26 30.00 1016 4 6 0.07 1.78
9:54 am 09:54 Cloudy with Light Rain 56 13.3 53 11.7 90 90 NNE 14 22 30.01 1016 5 8 0.09 2.29
10:24 am 10:24 Cloudy with Light Rain 56 13.3 53 11.7 90 90 N 9 15 30.02 1017 7 11 0.02 0.51
10:54 am 10:54 Cloudy with Light Rain 57 13.9 54 12.2 89 89 NNE 12 19 30.02 1017 7 11 0.02 0.51
11:07 am 11:07 Cloudy with Rain 57 13.9 54 12.2 89 89 NNE 12 19 30.03 1017 3 5 0.02 0.51
11:14 am 11:14 Cloudy with Heavy Rain 57 13.9 54 12.2 89 89 NNE 15 24 30.03 1017 3 4 0.04 1.02
11:54 am 11:54 Cloudy with Rain 57 13.9 54 12.2 89 89 NNE 22 35 30.03 1017 3 4 0.16 4.06
12:37 pm 12:37 Cloudy with Rain 57 13.9 54 12.2 89 89 NNE 22 35 30.04 1017 3 5 0.08 2.03
12:54 pm 12:54 Cloudy with Light Rain 57 13.9 53 11.7 87 87 NNE 23 37 30.02 1017 4 6 0.10 2.54
1:20 pm 13:20 Cloudy with Light Rain 57 13.9 53 11.7 87 87 NNE 24 39 30.03 1017 5 8 0.03 0.76
1:54 pm 13:54 Cloudy with Rain 57 13.9 53 11.7 87 87 NNE 23 37 30.04 1017 5 8 0.06 1.52
2:54 pm 14:54 Cloudy with Rain 56 13.3 52 11.1 87 87 NNE 22 35 30.04 1017 5 8 0.21 5.33
3:23 pm 15:23 Cloudy with Heavy Rain 56 13.3 52 11.1 87 87 NNE 23 37 30.04 1017 4 6 0.13 3.30
3:54 pm 15:54 Cloudy with Rain 56 13.3 52 11.1 87 87 NE 25 41 30.05 1018 4 6 0.23 5.84
4:10 pm 16:10 Cloudy with Rain 56 13.3 51 10.6 84 84 NNE 22 35 30.06 1018 6 10 0.02 0.51
4:54 pm 16:54 Cloudy with Light Rain 56 13.3 50 10 80 80 NE 22 35 30.06 1018 6 10 0.06 1.52
5:23 pm 17:23 Cloudy with Rain 55 12.8 51 10.6 86 86 NE 18 30 30.08 1019 7 11 0.02 0.51
5:54 pm 17:54 Cloudy with Rain 55 12.8 51 10.6 86 86 NE 16 26 30.10 1019 7 11 0.06 1.52
6:11 pm 18:11 Cloudy with Light Rain 55 12.8 51 10.6 86 86 NE 15 24 30.12 1020 5 8 0.04 1.02
6:54 pm 18:54 Cloudy with Light Rain 54 12.2 51 10.6 90 90 NNE 10 17 30.13 1020 5 8 0.27 6.86
7:30 pm 19:30 Cloudy with Light Rain 53 11.7 48 8.9 83 83 NNE 13 20 30.15 1021 6 10 0.08 2.03
7:54 pm 19:54 Cloudy with Light Rain 53 11.7 48 8.9 83 83 NE 15 24 30.14 1021 6 10 0.10 2.54
8:48 pm 20:48 Cloudy with Light Rain 52 11 46 8 82 82 NE 10 17 30.15 1021 7 11 0.04 1.02
8:54 pm 20:54 Cloudy with Light Rain 52 11.1 46 7.8 80 80 NE 15 24 30.14 1021 7 11 0.04 1.02
9:54 pm 21:54 Cloudy with Light Rain 51 10.6 48 8.9 89 89 NE 10 17 30.16 1021 8 13 0.09 2.29
10:14 pm 22:14 Cloudy with Rain 51 10.6 46 7.8 83 83 NE 16 26 30.16 1021 5 8 0.02 0.51
10:23 pm 22:23 Cloudy with Rain 50 10 46 7.8 86 86 NE 17 28 30.16 1021 4 6 0.06 1.52
10:30 pm 22:30 Cloudy with Rain 50 10 46 7.8 86 86 NE 14 22 30.16 1021 5 8 0.08 2.03
10:41 pm 22:41 Cloudy with Light Rain 51 10.6 46 7.8 83 83 NE 15 24 30.16 1021 7 11 0.09 2.29
10:54 pm 22:54 Cloudy with Rain 51 10.6 45 7.2 79 79 NE 13 20 30.16 1021 8 13 0.10 2.54
11:54 pm 23:54 Cloudy with Rain 50 10 45 7.2 83 83 NE 10 17 30.18 1022 7 11 0.08 2.03

Powered by AerisWeather